IRIDIUM 95 [P]

Last updated on Thu Mar 21 2019 03:13:37 GMT+0000 (Coordinated Universal Time)

1 27375U 02005D 19079.55985661 .03204072 -16608-5 71272-3 0 9999 2 27375 86.6188 18.3936 0253234 138.5499 223.8530 15.82637421902969

Satellite not in orbit